This is the latest recevied weather packets stored in our database for station/object F4IVW-13. If no packets are shown the sender has not sent any weather packets the latest 1 day(s).
| Time | Temp. | Humidity | Pressure | Rain* | Wind** | Luminosity | Snow |
|---|---|---|---|---|---|---|---|
| 1778093221 | 15° C | 99% | 1015 hPa | 0 mm | - | 0 W/m² | - |
| 1778092909 | 15° C | 99% | 1015 hPa | 0 mm | - | 0 W/m² | - |
| 1778092268 | 15.56° C | 99% | 1014.9 hPa | 0 mm | - | 0 W/m² | - |
| 1778091315 | 16.11° C | 99% | 1014.6 hPa | 0 mm | - | 0 W/m² | - |
| 1778090687 | 16.67° C | 99% | 1014.5 hPa | 0 mm | - | 0 W/m² | - |
| 1778090052 | 16.67° C | 99% | 1014.5 hPa | 0 mm | - | 0 W/m² | - |
| 1778087822 | 17.22° C | 99% | 1014.5 hPa | 0 mm | - | 2 W/m² | - |
| 1778086549 | 16.67° C | 99% | 1014.3 hPa | 0 mm | - | 1 W/m² | - |
| 1778086232 | 15.56° C | 99% | 1014.3 hPa | 0 mm | - | 0 W/m² | - |
| 1778084325 | 16.11° C | 99% | 1014.2 hPa | 0 mm | - | 1 W/m² | - |
| 1778084008 | 16.67° C | 99% | 1014.2 hPa | 0 mm | - | 2 W/m² | - |
| 1778083373 | 16.11° C | 99% | 1014.1 hPa | 0 mm | - | 3 W/m² | - |
| 1778082739 | 15.56° C | 99% | 1014 hPa | 0 mm | - | 2 W/m² | - |
| 1778082422 | 16.11° C | 99% | 1014.1 hPa | 0 mm | - | 3 W/m² | - |
| 1778082105 | 16.11° C | 99% | 1014 hPa | 0 mm | - | 1 W/m² | - |
| 1778077334 | 15.56° C | 99% | 1014 hPa | 0 mm | - | 10 W/m² | - |
| 1778077023 | 15° C | 99% | 1014 hPa | 0 mm | - | 17 W/m² | - |
| 1778076384 | 15° C | 99% | 1014 hPa | 0 mm | - | 2 W/m² | - |
| 1778074798 | 16.11° C | 99% | 1014 hPa | 0 mm | - | 9 W/m² | - |
| 1778074471 | 16.67° C | 99% | 1013.9 hPa | 0 mm | - | 18 W/m² | - |
| 1778073846 | 15° C | 99% | 1013.9 hPa | 0 mm | - | 83 W/m² | - |
| 1778073520 | 15° C | 99% | 1013.8 hPa | 0 mm | - | 56 W/m² | - |
| 1778073203 | 15° C | 99% | 1013.8 hPa | 0 mm | - | 44 W/m² | - |
| 1778072886 | 14.44° C | 99% | 1013.8 hPa | 0 mm | - | 42 W/m² | - |
| 1778071943 | 13.33° C | 99% | 1013.9 hPa | 0 mm | - | 54 W/m² | - |
* Rain latest hour (hover to see other rain measurements)
** Current wind speed in m/s (hover to see current wind gust speed)